This is the latest recevied weather packets stored in our database for station/object KG4LKY-5. If no packets are shown the sender has not sent any weather packets the latest 10 day(s).
| Time | Temp. | Humidity | Pressure | Rain* | Wind** | Luminosity | Snow |
|---|---|---|---|---|---|---|---|
| 1777541617 | 10° C | 100% | 1014.5 hPa | 0 mm | - | - | - |
| 1777541317 | 10° C | 100% | 1014.5 hPa | 0 mm | - | - | - |
| 1777541017 | 10.56° C | 100% | 1014.4 hPa | 0 mm | - | - | - |
| 1777540416 | 11.11° C | 98% | 1014.5 hPa | 0 mm | - | - | - |
| 1777540117 | 11.11° C | 98% | 1014.5 hPa | 0 mm | - | - | - |
| 1777539816 | 10.56° C | 98% | 1014.5 hPa | 0 mm | - | - | - |
| 1777539515 | 10° C | 99% | 1014.5 hPa | 0 mm | - | - | - |
| 1777539214 | 10.56° C | 100% | 1014.4 hPa | 0 mm | - | - | - |
| 1777538914 | 10.56° C | 100% | 1014.3 hPa | 0 mm | - | - | - |
| 1777538613 | 10.56° C | 100% | 1013.9 hPa | 0 mm | - | - | - |
| 1777538313 | 10.56° C | 100% | 1013.9 hPa | 0 mm | - | - | - |
| 1777538013 | 10° C | 100% | 1013.8 hPa | 0 mm | - | - | - |
| 1777537110 | 10.56° C | 100% | 1013.5 hPa | 0 mm | - | - | - |
| 1777536250 | 11.11° C | 100% | 1013 hPa | 0 mm | - | - | - |
| 1777536210 | 11.11° C | 100% | 1013 hPa | 0 mm | - | - | - |
| 1777535909 | 11.11° C | 100% | 1012.8 hPa | 0 mm | - | - | - |
| 1777535309 | 10.56° C | 100% | 1012.9 hPa | 0 mm | - | - | - |
| 1777535009 | 11.11° C | 100% | 1013 hPa | 0 mm | - | - | - |
| 1777534708 | 11.11° C | 100% | 1013.5 hPa | 0 mm | - | - | - |
| 1777534408 | 10.56° C | 100% | 1013.3 hPa | 0 mm | - | - | - |
| 1777534108 | 10.56° C | 100% | 1013.4 hPa | 0 mm | - | - | - |
| 1777533808 | 11.11° C | 100% | 1013.4 hPa | 0 mm | - | - | - |
| 1777533507 | 11.67° C | 100% | 1013.3 hPa | 0 mm | - | - | - |
| 1777532905 | 10.56° C | 100% | 1012.9 hPa | 0 mm | - | - | - |
| 1777532604 | 11.11° C | 100% | 1012.9 hPa | 0 mm | - | - | - |
* Rain since midnight (hover to see other rain measurements)
** Current wind speed in m/s (hover to see current wind gust speed)